Weather Roundup
Issued by NWS Springfield, MO

Home | Current Version | Previous Version | Text Only | Print | Product List | Glossary On
Versions: 1 2 3 4 5 6 7 8 9 10 11 12 13 14 15 16 17 18 19 20 21 22 23 24 25 26 27 28 29 30 31 32 33 34 35 36 37 38 39 40 41 42 43 44 45 46 47 48 49 50
000
NZUS99 KSGF 250207
HRRSGF

HOURLY WEATHER
NATIONAL WEATHER SERVICE SPRINGFIELD MO
900 PM CDT FRI MAR 24 2017

......SGF CWA......

CITY           SKY/WX    TMP DP  RH WIND       PRES   REMARKS
SPRINGFIELD    HVY RAIN  57  52  83 VRB3      29.94R
JOPLIN         CLOUDY    60  54  80 SE7G16    29.80R
WEST PLAINS    CLOUDY    68  55  63 SE15G21   29.90F
ROLLA          CLOUDY    66  54  65 E8        29.87F
OSAGE BEACH    RAIN     N/A N/A N/A SW5       29.96R
BRANSON        RAIN      54  54 100 W8        29.94R FOG

......SURROUNDING SGF CWA......

CITY           SKY/WX    TMP DP  RH WIND       PRES   REMARKS
CHANUTE        CLOUDY    61  56  83 SE7       29.78R
PARSONS        CLEAR     62  56  80 E5        29.78R
COFFEYVILLE    CLEAR     60  56  86 E6        29.77R
EMPORIA        CLOUDY    51  48  89 NW7       29.84R THUNDER
GROVE OK       CLOUDY    61  55  82 E6        29.79F
ROGERS AR      MOCLDY    56  54  93 SE10      29.83F
SILOAM SPRINGS CLOUDY    57  54  88 SE8       29.80F
HARRISON AR    RAIN      57  54  89 S8G21     29.94R FOG
NEAR YELLVILLE CLOUDY    63  54  72 S8        29.88R

......KANSAS AND MISSOURI......

CITY           SKY/WX    TMP DP  RH WIND       PRES   REMARKS
KANSAS CTY INT CLOUDY    60  57  89 S9        29.84R
DOWNTOWN KC    CLOUDY    61  57  87 CALM      29.83R
COLUMBIA       CLOUDY    59  55  87 SW6       29.92F
SEDALIA        CLOUDY    60  57  89 S9        29.87F
ST JOSEPH      CLOUDY    59  59 100 CALM      29.84S
ST LOUIS       CLOUDY    72  54  53 SE9       29.96F
SPIRIT OF STL  CLOUDY    71  56  58 SE7       29.93F
KIRKSVILLE     CLOUDY    57  57 100 CALM      29.92F
WICHITA        CLOUDY    57  48  72 N20       29.80R
TOPEKA         TSTM      59  53  80 W8G21     29.83R
OLATHE         CLOUDY    58  57  97 E6        29.83R

......TENNESSEE......

CITY           SKY/WX    TMP DP  RH WIND       PRES   REMARKS
MEMPHIS        CLOUDY    72  59  63 SE18G26   30.00F
NASHVILLE      CLOUDY    69  52  54 SE13      30.15F

......ARKANSAS.......

CITY           SKY/WX    TMP DP  RH WIND       PRES   REMARKS
FAYETTEVILLE   MOCLDY    56  55  97 E3        29.83S
FT SMITH       CLOUDY    58  55  90 E7        29.80R
LITTLE ROCK    CLOUDY    67  62  84 S6        29.89F

......OKLAHOMA.......

CITY           SKY/WX    TMP DP  RH WIND       PRES   REMARKS
TULSA          MOCLDY    64  51  62 NE3       29.73R
PONCA CITY     MOCLDY    68  30  24 S5        29.72S
MCALESTER      PTCLDY    65  58  78 SE7       29.74F
OKLAHOMA CITY  MOCLDY    55  48  77 S5        29.71R

......IOWA............

CITY           SKY/WX    TMP DP  RH WIND       PRES   REMARKS
DES MOINES     DRIZZLE   46  43  89 NE20      29.96F FOG
QUAD CITIES    CLOUDY    57  54  89 NE6       29.97F

......ILLINOIS........

CITY           SKY/WX    TMP DP  RH WIND       PRES   REMARKS
QUINCY         CLOUDY    55  55 100 E6        29.96F FOG
CHICAGO        CLOUDY    43  36  76 NE15      30.06R




USA.gov is the U.S. government's official web portal to all federal, state and local government web resources and services.